星链-6234 (STARLINK-6234 )

导读

STARLINK-6234是美国太空探索技术公司 SpaceX 星链星座的一颗卫星,于2023年7月16日发射升空,属于星链第二代组网卫星,主要为全球提供低延迟、高速率的宽带互联网服务,尤其服务偏远地区、移动载具联网,目前已进入近地轨道正常运行。

Basic Information
目录编号:
57331
目录名称:
STARLINK-6234
国际标识:
2023-099D
轨道中心:
EARTH
卫星名称:
星链-6234
卫星全名:
星链-6234 (STARLINK-6234 )
卫星状态:
在轨 (已飞行1147 天)
发射日期:
2023-07-16 UTC
国别 :
美国 (US)
星等 :
--
Orbit Information
数据来源 国际轨道数据
星历时间: 2026-09-05T14:42:07+0800
12小时前
查看轨道信息
半长轴: 6861.193km
偏心率: 0.0001581
轨道倾角: 43.003°
近地点辐角 266.556°
升交点赤经 318.071°
平近点角 93.511°
近地点: 481.971km
远地点: 484.141km
周期: 94.267分钟
每日圈数: 15.275777
Detailed Information
固有亮度:
5
最大亮度:
2.5
卫星平台:
Starlink v1.5
覆盖范围:
全球
运营商:
太空探索技术公司
运营商所在国:
美国
制造商(研发单位):
太空探索技术公司
制造商所在国:
美国
使用方式:
暂无
Satellite Introduction
星链(Starlink)计划是由太空探索技术公司(SpaceX)提出的一个巨型低轨卫星互联网星座项目,计划在2019年至2024年间在太空搭建由约1.2万颗卫星组成的“星链”网络,其中1584颗将部署在地球上空550千米处的近地轨道,并从2020年开始工作。该卫星仍在工作。
2D Orbit Map
3D Orbit Map
Orbit Altitude Analysis Chart
Orbit Inclination Analysis Chart
Orbit Comprehensive Analysis Chart
View Comprehensive Chart
Conjunction Data List
Event ID Objects TCA Miss Dist (km) Collision Risk Probability Collision Risk Index (CRI) Action
CDM_260907-163205-733106-650222
2026-09-07T
16:32:55+0000
0.600 km
远距离
8.784032E-5 中风险 0.74
CDM_260907-145805-733106-650222
2026-09-07T
14:58:46+0000
1.679 km
极远距离
3.102549E-6 低风险 0.45
CDM_260907-180705-733106-650222
2026-09-07T
18:07:04+0000
2.321 km
极远距离
1.389869E-6 低风险 0.38
CDM_260908-055305-733106-650221
2026-09-08T
05:53:14+0000
2.670 km
极远距离
1.092715E-6 低风险 0.36
CDM_260831-091305-733106-215821
2026-08-31T
09:13:54+0000
2.684 km
极远距离
1.063013E-6 低风险 0.36